This is the latest recevied weather packets stored in our database for station/object KN6DHD. If no packets are shown the sender has not sent any weather packets the latest 10 day(s).
| Time | Temp. | Humidity | Pressure | Rain* | Wind** | Luminosity | Snow |
|---|---|---|---|---|---|---|---|
| 1777820847 | 13.33° C | 83% | 1012.5 hPa | 0 mm | - | 86 W/m² | - |
| 1777820543 | 13.33° C | 83% | 1012.3 hPa | 0 mm | - | 81 W/m² | - |
| 1777820240 | 13.33° C | 84% | 1012.4 hPa | 0 mm | - | 73 W/m² | - |
| 1777819938 | 13.33° C | 85% | 1012.6 hPa | 0 mm | - | 74 W/m² | - |
| 1777819635 | 12.78° C | 85% | 1012.4 hPa | 0 mm | - | 75 W/m² | - |
| 1777819333 | 12.78° C | 86% | 1012.6 hPa | 0 mm | - | 68 W/m² | - |
| 1777819029 | 12.78° C | 86% | 1012.1 hPa | 0 mm | - | 60 W/m² | - |
| 1777818727 | 12.78° C | 86% | 1012.1 hPa | 0 mm | - | 57 W/m² | - |
| 1777818423 | 12.78° C | 86% | 1012 hPa | 0 mm | - | 53 W/m² | - |
| 1777818119 | 12.78° C | 86% | 1011.7 hPa | 0 mm | - | 47 W/m² | - |
| 1777817816 | 12.78° C | 86% | 1011.7 hPa | 0 mm | - | 43 W/m² | - |
| 1777817514 | 12.78° C | 87% | 1011.6 hPa | 0 mm | - | 37 W/m² | - |
| 1777817210 | 12.78° C | 87% | 1011.3 hPa | 0 mm | - | 31 W/m² | - |
| 1777816907 | 12.78° C | 87% | 1011.5 hPa | 0 mm | - | 27 W/m² | - |
| 1777816604 | 12.78° C | 87% | 1011.5 hPa | 0 mm | - | 23 W/m² | - |
| 1777816301 | 12.22° C | 87% | 1011.5 hPa | 0 mm | - | 20 W/m² | - |
| 1777815998 | 12.22° C | 87% | 1011.1 hPa | 0 mm | - | 15 W/m² | - |
| 1777815695 | 12.22° C | 87% | 1011.5 hPa | 0 mm | - | 12 W/m² | - |
| 1777815387 | 12.22° C | 87% | 1011.1 hPa | 0 mm | - | 7 W/m² | - |
| 1777815084 | 12.22° C | 87% | 1011.2 hPa | 0 mm | - | 6 W/m² | - |
| 1777814780 | 12.22° C | 87% | 1011.1 hPa | 0 mm | - | 4 W/m² | - |
| 1777814477 | 12.22° C | 87% | 1011.1 hPa | 0 mm | - | 2 W/m² | - |
| 1777814174 | 12.22° C | 87% | 1011.1 hPa | 0 mm | - | 0 W/m² | - |
| 1777813871 | 12.22° C | 87% | 1010.9 hPa | 0 mm | - | 0 W/m² | - |
| 1777813569 | 12.22° C | 87% | 1010.9 hPa | 0 mm | - | 0 W/m² | - |
* Rain latest hour (hover to see other rain measurements)
** Current wind speed in m/s (hover to see current wind gust speed)